Year,Month,Day,Hour,Minute,Value (Times are PST for temperature in C)
2007,01,29,00,00,-0.50
2007,01,29,00,01,-0.50
2007,01,29,00,02,-0.60
2007,01,29,00,03,-0.60
2007,01,29,00,04,-0.70
2007,01,29,00,05,-0.70
2007,01,29,00,06,-0.70
2007,01,29,00,07,-0.80
2007,01,29,00,08,-0.80
2007,01,29,00,09,-0.90
2007,01,29,00,10,-1.00
2007,01,29,00,11,-1.00
2007,01,29,00,12,-1.10
2007,01,29,00,13,-1.10
2007,01,29,00,14,-1.10
2007,01,29,00,15,-1.20
2007,01,29,00,16,-1.20
2007,01,29,00,17,-1.20
2007,01,29,00,18,-1.20
2007,01,29,00,19,-1.20
2007,01,29,00,20,-1.20
2007,01,29,00,21,-1.20
2007,01,29,00,22,-1.20
2007,01,29,00,23,-1.20
2007,01,29,00,24,-1.20
2007,01,29,00,25,-1.20
2007,01,29,00,26,-1.10
2007,01,29,00,27,-1.10
2007,01,29,00,28,-1.10
2007,01,29,00,29,-1.00
2007,01,29,00,30,-1.00
2007,01,29,00,31,-1.00
2007,01,29,00,32,-1.00
2007,01,29,00,33,-1.00
2007,01,29,00,34,-1.00
2007,01,29,00,35,-1.00
2007,01,29,00,36,-1.00
2007,01,29,00,37,-1.10
2007,01,29,00,38,-1.10
2007,01,29,00,39,-1.10
2007,01,29,00,40,-1.10
2007,01,29,00,41,-1.10
2007,01,29,00,42,-1.10
2007,01,29,00,43,-1.10
2007,01,29,00,44,-1.10
2007,01,29,00,45,-1.10
2007,01,29,00,46,-1.10
2007,01,29,00,47,-1.00
2007,01,29,00,48,-1.00
2007,01,29,00,49,-0.90
2007,01,29,00,50,-0.90
2007,01,29,00,51,-0.90
2007,01,29,00,52,-0.80
2007,01,29,00,53,-0.80
2007,01,29,00,54,-0.80
2007,01,29,00,55,-0.70
2007,01,29,00,56,-0.70
2007,01,29,00,57,-0.70
2007,01,29,00,58,-0.60
2007,01,29,00,59,-0.60
2007,01,29,01,00,-0.60
2007,01,29,01,01,-0.60
2007,01,29,01,02,-0.60
2007,01,29,01,03,-0.60
2007,01,29,01,04,-0.60
2007,01,29,01,05,-0.60
2007,01,29,01,06,-0.60
2007,01,29,01,07,-0.60
2007,01,29,01,08,-0.60
2007,01,29,01,09,-0.60
2007,01,29,01,10,-0.60
2007,01,29,01,11,-0.70
2007,01,29,01,12,-0.80
2007,01,29,01,13,-0.80
2007,01,29,01,14,-0.90
2007,01,29,01,15,-0.90
2007,01,29,01,16,-0.80
2007,01,29,01,17,-0.80
2007,01,29,01,18,-0.70
2007,01,29,01,19,-0.60
2007,01,29,01,20,-0.50
2007,01,29,01,21,-0.50
2007,01,29,01,22,-0.40
2007,01,29,01,23,-0.40
2007,01,29,01,24,-0.40
2007,01,29,01,25,-0.40
2007,01,29,01,26,-0.40
2007,01,29,01,27,-0.20
2007,01,29,01,28,-0.10
2007,01,29,01,29,0.10
2007,01,29,01,30,0.20
2007,01,29,01,31,0.30
2007,01,29,01,32,0.40
2007,01,29,01,33,0.50
2007,01,29,01,34,0.50
2007,01,29,01,35,0.50
2007,01,29,01,36,0.50
2007,01,29,01,37,0.40
2007,01,29,01,38,0.40
2007,01,29,01,39,0.30
2007,01,29,01,40,0.30
2007,01,29,01,41,0.30
2007,01,29,01,42,0.30
2007,01,29,01,43,0.20
2007,01,29,01,44,0.20
2007,01,29,01,45,0.10
2007,01,29,01,46,0.10
2007,01,29,01,47,0.10
2007,01,29,01,48,0.10
2007,01,29,01,49,0.10
2007,01,29,01,50,0.10
2007,01,29,01,51,0.00
2007,01,29,01,52,0.00
2007,01,29,01,53,0.00
2007,01,29,01,54,0.10
2007,01,29,01,55,0.10
2007,01,29,01,56,0.20
2007,01,29,01,57,0.20
2007,01,29,01,58,0.30
2007,01,29,01,59,0.40
2007,01,29,02,00,0.40
2007,01,29,02,01,0.40
2007,01,29,02,02,0.50
2007,01,29,02,03,0.50
2007,01,29,02,04,0.60
2007,01,29,02,05,0.60
2007,01,29,02,06,0.60
2007,01,29,02,07,0.60
2007,01,29,02,08,0.70
2007,01,29,02,09,0.70
2007,01,29,02,10,0.70
2007,01,29,02,11,0.70
2007,01,29,02,12,0.70
2007,01,29,02,13,0.60
2007,01,29,02,14,0.60
2007,01,29,02,15,0.60
2007,01,29,02,16,0.40
2007,01,29,02,17,0.40
2007,01,29,02,18,0.30
2007,01,29,02,19,0.30
2007,01,29,02,20,0.20
2007,01,29,02,21,0.10
2007,01,29,02,22,0.00
2007,01,29,02,23,-0.20
2007,01,29,02,24,-0.30
2007,01,29,02,25,-0.40
2007,01,29,02,26,-0.50
2007,01,29,02,27,-0.60
2007,01,29,02,28,-0.60
2007,01,29,02,29,-0.70
2007,01,29,02,30,-0.80
2007,01,29,02,31,-0.80
2007,01,29,02,32,-0.90
2007,01,29,02,33,-1.00
2007,01,29,02,34,-1.00
2007,01,29,02,35,-1.00
2007,01,29,02,36,-1.10
2007,01,29,02,37,-1.10
2007,01,29,02,38,-1.10
2007,01,29,02,39,-1.10
2007,01,29,02,40,-1.10
2007,01,29,02,41,-1.10
2007,01,29,02,42,-1.10
2007,01,29,02,43,-1.10
2007,01,29,02,44,-1.10
2007,01,29,02,45,-1.10
2007,01,29,02,46,-1.10
2007,01,29,02,47,-1.10
2007,01,29,02,48,-1.10
2007,01,29,02,49,-1.10
2007,01,29,02,50,-1.10
2007,01,29,02,51,-1.10
2007,01,29,02,52,-1.10
2007,01,29,02,53,-1.20
2007,01,29,02,54,-1.20
2007,01,29,02,55,-1.20
2007,01,29,02,56,-1.20
2007,01,29,02,57,-1.30
2007,01,29,02,58,-1.30
2007,01,29,02,59,-1.30
2007,01,29,03,00,-1.30
2007,01,29,03,01,-1.30
2007,01,29,03,02,-1.40
2007,01,29,03,03,-1.40
2007,01,29,03,04,-1.40
2007,01,29,03,05,-1.40
2007,01,29,03,06,-1.40
2007,01,29,03,07,-1.50
2007,01,29,03,08,-1.50
2007,01,29,03,09,-1.50
2007,01,29,03,10,-1.50
2007,01,29,03,11,-1.50
2007,01,29,03,12,-1.60
2007,01,29,03,13,-1.60
2007,01,29,03,14,-1.60
2007,01,29,03,15,-1.60
2007,01,29,03,16,-1.60
2007,01,29,03,17,-1.60
2007,01,29,03,18,-1.60
2007,01,29,03,19,-1.60
2007,01,29,03,20,-1.60
2007,01,29,03,21,-1.60
2007,01,29,03,22,-1.60
2007,01,29,03,23,-1.50
2007,01,29,03,24,-1.50
2007,01,29,03,25,-1.50
2007,01,29,03,26,-1.40
2007,01,29,03,27,-1.40
2007,01,29,03,28,-1.40
2007,01,29,03,29,-1.40
2007,01,29,03,30,-1.40
2007,01,29,03,31,-1.40
2007,01,29,03,32,-1.40
2007,01,29,03,33,-1.40
2007,01,29,03,34,-1.40
2007,01,29,03,35,-1.50
2007,01,29,03,36,-1.50
2007,01,29,03,37,-1.50
2007,01,29,03,38,-1.50
2007,01,29,03,39,-1.40
2007,01,29,03,40,-1.40
2007,01,29,03,41,-1.40
2007,01,29,03,42,-1.50
2007,01,29,03,43,-1.50
2007,01,29,03,44,-1.50
2007,01,29,03,45,-1.50
2007,01,29,03,46,-1.50
2007,01,29,03,47,-1.50
2007,01,29,03,48,-1.50
2007,01,29,03,49,-1.50
2007,01,29,03,50,-1.50
2007,01,29,03,51,-1.50
2007,01,29,03,52,-1.40
2007,01,29,03,53,-1.40
2007,01,29,03,54,-1.40
2007,01,29,03,55,-1.40
2007,01,29,03,56,-1.40
2007,01,29,03,57,-1.40
2007,01,29,03,58,-1.40
2007,01,29,03,59,-1.40
2007,01,29,04,00,-1.30
2007,01,29,04,01,-1.30
2007,01,29,04,02,-1.30
2007,01,29,04,03,-1.30
2007,01,29,04,04,-1.30
2007,01,29,04,05,-1.30
2007,01,29,04,06,-1.20
2007,01,29,04,07,-1.20
2007,01,29,04,08,-1.10
2007,01,29,04,09,-1.10
2007,01,29,04,10,-1.00
2007,01,29,04,11,-1.00
2007,01,29,04,12,-0.90
2007,01,29,04,13,-0.90
2007,01,29,04,14,-0.80
2007,01,29,04,15,-0.70
2007,01,29,04,16,-0.60
2007,01,29,04,17,-0.50
2007,01,29,04,18,-0.50
2007,01,29,04,19,-0.50
2007,01,29,04,20,-0.50
2007,01,29,04,21,-0.40
2007,01,29,04,22,-0.40
2007,01,29,04,23,-0.30
2007,01,29,04,24,-0.30
2007,01,29,04,25,-0.20
2007,01,29,04,26,-0.20
2007,01,29,04,27,-0.30
2007,01,29,04,28,-0.30
2007,01,29,04,29,-0.30
2007,01,29,04,30,-0.30
2007,01,29,04,31,-0.40
2007,01,29,04,32,-0.40
2007,01,29,04,33,-0.50
2007,01,29,04,34,-0.60
2007,01,29,04,35,-0.60
2007,01,29,04,36,-0.70
2007,01,29,04,37,-0.70
2007,01,29,04,38,-0.70
2007,01,29,04,39,-0.70
2007,01,29,04,40,-0.70
2007,01,29,04,41,-0.70
2007,01,29,04,42,-0.70
2007,01,29,04,43,-0.70
2007,01,29,04,44,-0.60
2007,01,29,04,45,-0.60
2007,01,29,04,46,-0.60
2007,01,29,04,47,-0.50
2007,01,29,04,48,-0.50
2007,01,29,04,49,-0.50
2007,01,29,04,50,-0.50
2007,01,29,04,51,-0.50
2007,01,29,04,52,-0.50
2007,01,29,04,53,-0.50
2007,01,29,04,54,-0.50
2007,01,29,04,55,-0.40
2007,01,29,04,56,-0.40
2007,01,29,04,57,-0.40
2007,01,29,04,58,-0.40
2007,01,29,04,59,-0.40
2007,01,29,05,00,-0.40
2007,01,29,05,01,-0.40
2007,01,29,05,02,-0.50
2007,01,29,05,03,-0.50
2007,01,29,05,04,-0.60
2007,01,29,05,05,-0.60
2007,01,29,05,06,-0.70
2007,01,29,05,07,-0.70
2007,01,29,05,08,-0.70
2007,01,29,05,09,-0.80
2007,01,29,05,10,-0.80
2007,01,29,05,11,-0.80
2007,01,29,05,12,-0.80
2007,01,29,05,13,-0.80
2007,01,29,05,14,-0.80
2007,01,29,05,15,-0.80
2007,01,29,05,16,-0.80
2007,01,29,05,17,-0.70
2007,01,29,05,18,-0.60
2007,01,29,05,19,-0.40
2007,01,29,05,20,-0.30
2007,01,29,05,21,-0.10
2007,01,29,05,22,-0.10
2007,01,29,05,23,-0.20
2007,01,29,05,24,-0.30
2007,01,29,05,25,-0.30
2007,01,29,05,26,-0.30
2007,01,29,05,27,-0.40
2007,01,29,05,28,-0.40
2007,01,29,05,29,-0.40
2007,01,29,05,30,-0.40
2007,01,29,05,31,-0.40
2007,01,29,05,32,-0.50
2007,01,29,05,33,-0.50
2007,01,29,05,34,-0.50
2007,01,29,05,35,-0.60
2007,01,29,05,36,-0.60
2007,01,29,05,37,-0.60
2007,01,29,05,38,-0.60
2007,01,29,05,39,-0.70
2007,01,29,05,40,-0.70
2007,01,29,05,41,-0.70
2007,01,29,05,42,-0.70
2007,01,29,05,43,-0.70
2007,01,29,05,44,-0.70
2007,01,29,05,45,-0.80
2007,01,29,05,46,-0.80
2007,01,29,05,47,-0.80
2007,01,29,05,48,-0.80
2007,01,29,05,49,-0.70
2007,01,29,05,50,-0.70
2007,01,29,05,51,-0.60
2007,01,29,05,52,-0.60
2007,01,29,05,53,-0.50
2007,01,29,05,54,-0.30
2007,01,29,05,55,-0.20
2007,01,29,05,56,-0.10
2007,01,29,05,57,0.00
2007,01,29,05,58,0.00
2007,01,29,05,59,0.10
2007,01,29,06,00,0.10
2007,01,29,06,01,0.10
2007,01,29,06,02,0.10
2007,01,29,06,03,0.10
2007,01,29,06,04,0.10
2007,01,29,06,05,0.00
2007,01,29,06,06,0.00
2007,01,29,06,07,0.00
2007,01,29,06,08,-0.10
2007,01,29,06,09,-0.10
2007,01,29,06,10,-0.10
2007,01,29,06,11,-0.20
2007,01,29,06,12,-0.20
2007,01,29,06,13,-0.30
2007,01,29,06,14,-0.40
2007,01,29,06,15,-0.50
2007,01,29,06,16,-0.60
2007,01,29,06,17,-0.70
2007,01,29,06,18,-0.70
2007,01,29,06,19,-0.70
2007,01,29,06,20,-0.80
2007,01,29,06,21,-0.80
2007,01,29,06,22,-0.80
2007,01,29,06,23,-0.80
2007,01,29,06,24,-0.90
2007,01,29,06,25,-0.90
2007,01,29,06,26,-0.90
2007,01,29,06,27,-0.90
2007,01,29,06,28,-0.90
2007,01,29,06,29,-0.90
2007,01,29,06,30,-0.90
2007,01,29,06,31,-1.00
2007,01,29,06,32,-1.00
2007,01,29,06,33,-1.00
2007,01,29,06,34,-1.10
2007,01,29,06,35,-1.10
2007,01,29,06,36,-1.10
2007,01,29,06,37,-1.10
2007,01,29,06,38,-1.10
2007,01,29,06,39,-1.10
2007,01,29,06,40,-1.10
2007,01,29,06,41,-1.10
2007,01,29,06,42,-1.20
2007,01,29,06,43,-1.20
2007,01,29,06,44,-1.20
2007,01,29,06,45,-1.20
2007,01,29,06,46,-1.20
2007,01,29,06,47,-1.10
2007,01,29,06,48,-1.10
2007,01,29,06,49,-1.10
2007,01,29,06,50,-1.10
2007,01,29,06,51,-1.10
2007,01,29,06,52,-1.10
2007,01,29,06,53,-1.20
2007,01,29,06,54,-1.20
2007,01,29,06,55,-1.20
2007,01,29,06,56,-1.20
2007,01,29,06,57,-1.20
2007,01,29,06,58,-1.20
2007,01,29,06,59,-1.20
2007,01,29,07,00,-1.20
2007,01,29,07,01,-1.20
2007,01,29,07,02,-1.10
2007,01,29,07,03,-1.10
2007,01,29,07,04,-1.10
2007,01,29,07,05,-1.10
2007,01,29,07,06,-1.10
2007,01,29,07,07,-1.10
2007,01,29,07,08,-1.10
2007,01,29,07,09,-1.10
2007,01,29,07,10,-1.10
2007,01,29,07,11,-1.10
2007,01,29,07,12,-1.10
2007,01,29,07,13,-1.10
2007,01,29,07,14,-1.20
2007,01,29,07,15,-1.20
2007,01,29,07,16,-1.20
2007,01,29,07,17,-1.20
2007,01,29,07,18,-1.30
2007,01,29,07,19,-1.30
2007,01,29,07,20,-1.30
2007,01,29,07,21,-1.30
2007,01,29,07,22,-1.30
2007,01,29,07,23,-1.20
2007,01,29,07,24,-1.10
2007,01,29,07,25,-1.10
2007,01,29,07,26,-1.10
2007,01,29,07,27,-1.00
2007,01,29,07,28,-1.00
2007,01,29,07,29,-1.00
2007,01,29,07,30,-1.00
2007,01,29,07,31,-1.10
2007,01,29,07,32,-1.10
2007,01,29,07,33,-1.20
2007,01,29,07,34,-1.20
2007,01,29,07,35,-1.30
2007,01,29,07,36,-1.30
2007,01,29,07,37,-1.30
2007,01,29,07,38,-1.30
2007,01,29,07,39,-1.30
2007,01,29,07,40,-1.30
2007,01,29,07,41,-1.30
2007,01,29,07,42,-1.20
2007,01,29,07,43,-1.20
2007,01,29,07,44,-1.20
2007,01,29,07,45,-1.10
2007,01,29,07,46,-1.00
2007,01,29,07,47,-1.00
2007,01,29,07,48,-0.90
2007,01,29,07,49,-0.80
2007,01,29,07,50,-0.80
2007,01,29,07,51,-0.80
2007,01,29,07,52,-0.70
2007,01,29,07,53,-0.70
2007,01,29,07,54,-0.70
2007,01,29,07,55,-0.70
2007,01,29,07,56,-0.80
2007,01,29,07,57,-0.80
2007,01,29,07,58,-0.80
2007,01,29,07,59,-0.80
2007,01,29,08,00,-0.80
2007,01,29,08,01,-0.80
2007,01,29,08,02,-0.80
2007,01,29,08,03,-0.80
2007,01,29,08,04,-0.80
2007,01,29,08,05,-0.80
2007,01,29,08,06,-0.80
2007,01,29,08,07,-0.80
2007,01,29,08,08,-0.80
2007,01,29,08,09,-0.80
2007,01,29,08,10,-0.80
2007,01,29,08,11,-0.80
2007,01,29,08,12,-0.80
2007,01,29,08,13,-0.80
2007,01,29,08,14,-0.80
2007,01,29,08,15,-0.80
2007,01,29,08,16,-0.80
2007,01,29,08,17,-0.80
2007,01,29,08,18,-0.80
2007,01,29,08,19,-0.80
2007,01,29,08,20,-0.80
2007,01,29,08,21,-0.80
2007,01,29,08,22,-0.80
2007,01,29,08,23,-0.80
2007,01,29,08,24,-0.80
2007,01,29,08,25,-0.70
2007,01,29,08,26,-0.70
2007,01,29,08,27,-0.70
2007,01,29,08,28,-0.70
2007,01,29,08,29,-0.70
2007,01,29,08,30,-0.70
2007,01,29,08,31,-0.70
2007,01,29,08,32,-0.70
2007,01,29,08,33,-0.70
2007,01,29,08,34,-0.70
2007,01,29,08,35,-0.70
2007,01,29,08,36,-0.70
2007,01,29,08,37,-0.70
2007,01,29,08,38,-0.70
2007,01,29,08,39,-0.70
2007,01,29,08,40,-0.70
2007,01,29,08,41,-0.70
2007,01,29,08,42,-0.60
2007,01,29,08,43,-0.60
2007,01,29,08,44,-0.60
2007,01,29,08,45,-0.50
2007,01,29,08,46,-0.50
2007,01,29,08,47,-0.40
2007,01,29,08,48,-0.40
2007,01,29,08,49,-0.30
2007,01,29,08,50,-0.30
2007,01,29,08,51,-0.20
2007,01,29,08,52,-0.20
2007,01,29,08,53,-0.10
2007,01,29,08,54,-0.10
2007,01,29,08,55,0.00
2007,01,29,08,56,0.00
2007,01,29,08,57,0.00
2007,01,29,08,58,0.10
2007,01,29,08,59,0.10
2007,01,29,09,00,0.10
2007,01,29,09,01,0.10
2007,01,29,09,02,0.10
2007,01,29,09,03,0.10
2007,01,29,09,04,0.10
2007,01,29,09,05,0.10
2007,01,29,09,06,0.10
2007,01,29,09,07,0.10
2007,01,29,09,08,0.10
2007,01,29,09,09,0.10
2007,01,29,09,10,0.10
2007,01,29,09,11,0.10
2007,01,29,09,12,0.10
2007,01,29,09,13,0.10
2007,01,29,09,14,0.10
2007,01,29,09,15,0.20
2007,01,29,09,16,0.20
2007,01,29,09,17,0.20
2007,01,29,09,18,0.20
2007,01,29,09,19,0.30
2007,01,29,09,20,0.30
2007,01,29,09,21,0.40
2007,01,29,09,22,0.50
2007,01,29,09,23,0.50
2007,01,29,09,24,0.60
2007,01,29,09,25,0.70
2007,01,29,09,26,0.80
2007,01,29,09,27,0.80
2007,01,29,09,28,0.90
2007,01,29,09,29,1.00
2007,01,29,09,30,1.10
2007,01,29,09,31,1.20
2007,01,29,09,32,1.30
2007,01,29,09,33,1.30
2007,01,29,09,34,1.30
2007,01,29,09,35,1.40
2007,01,29,09,36,1.50
2007,01,29,09,37,1.60
2007,01,29,09,38,1.70
2007,01,29,09,39,1.70
2007,01,29,09,40,1.70
2007,01,29,09,41,1.60
2007,01,29,09,42,1.60
2007,01,29,09,43,1.60
2007,01,29,09,44,1.60
2007,01,29,09,45,1.50
2007,01,29,09,46,1.50
2007,01,29,09,47,1.50
2007,01,29,09,48,1.40
2007,01,29,09,49,1.50
2007,01,29,09,50,1.50
2007,01,29,09,51,1.50
2007,01,29,09,52,1.60
2007,01,29,09,53,1.60
2007,01,29,09,54,1.70
2007,01,29,09,55,1.70
2007,01,29,09,56,1.80
2007,01,29,09,57,1.90
2007,01,29,09,58,2.00
2007,01,29,09,59,2.10
2007,01,29,10,00,2.10
2007,01,29,10,01,2.20
2007,01,29,10,02,2.20
2007,01,29,10,03,2.30
2007,01,29,10,04,2.30
2007,01,29,10,05,2.30
2007,01,29,10,06,2.40
2007,01,29,10,07,2.40
2007,01,29,10,08,2.50
2007,01,29,10,09,2.50
2007,01,29,10,10,2.50
2007,01,29,10,11,2.60
2007,01,29,10,12,2.60
2007,01,29,10,13,2.60
2007,01,29,10,14,2.70
2007,01,29,10,15,2.70
2007,01,29,10,16,2.80
2007,01,29,10,17,2.80
2007,01,29,10,18,2.80
2007,01,29,10,19,2.90
2007,01,29,10,20,2.90
2007,01,29,10,21,3.00
2007,01,29,10,22,3.10
2007,01,29,10,23,3.20
2007,01,29,10,24,3.20
2007,01,29,10,25,3.20
2007,01,29,10,26,3.30
2007,01,29,10,27,3.30
2007,01,29,10,28,3.30
2007,01,29,10,29,3.30
2007,01,29,10,30,3.30
2007,01,29,10,31,3.30
2007,01,29,10,32,3.30
2007,01,29,10,33,3.40
2007,01,29,10,34,3.40
2007,01,29,10,35,3.40
2007,01,29,10,36,3.40
2007,01,29,10,37,3.40
2007,01,29,10,38,3.40
2007,01,29,10,39,3.40
2007,01,29,10,40,3.40
2007,01,29,10,41,3.40
2007,01,29,10,42,3.40
2007,01,29,10,43,3.40
2007,01,29,10,44,3.40
2007,01,29,10,45,3.40
2007,01,29,10,46,3.50
2007,01,29,10,47,3.50
2007,01,29,10,48,3.60
2007,01,29,10,49,3.60
2007,01,29,10,50,3.70
2007,01,29,10,51,3.70
2007,01,29,10,52,3.70
2007,01,29,10,53,3.70
2007,01,29,10,54,3.80
2007,01,29,10,55,3.80
2007,01,29,10,56,3.90
2007,01,29,10,57,3.90
2007,01,29,10,58,3.90
2007,01,29,10,59,3.90
2007,01,29,11,00,3.90
2007,01,29,11,01,3.90
2007,01,29,11,02,4.00
2007,01,29,11,03,4.00
2007,01,29,11,04,4.00
2007,01,29,11,05,4.00
2007,01,29,11,06,4.00
2007,01,29,11,07,4.00
2007,01,29,11,08,4.00
2007,01,29,11,09,4.00
2007,01,29,11,10,4.00
2007,01,29,11,11,4.10
2007,01,29,11,12,4.10
2007,01,29,11,13,4.10
2007,01,29,11,14,4.10
2007,01,29,11,15,4.10
2007,01,29,11,16,4.10
2007,01,29,11,17,4.10
2007,01,29,11,18,4.10
2007,01,29,11,19,4.00
2007,01,29,11,20,4.00
2007,01,29,11,21,4.00
2007,01,29,11,22,4.00
2007,01,29,11,23,4.00
2007,01,29,11,24,4.00
2007,01,29,11,25,4.10
2007,01,29,11,26,4.10
2007,01,29,11,27,4.10
2007,01,29,11,28,4.10
2007,01,29,11,29,4.20
2007,01,29,11,30,4.20
2007,01,29,11,31,4.20
2007,01,29,11,32,4.20
2007,01,29,11,33,4.10
2007,01,29,11,34,4.10
2007,01,29,11,35,4.10
2007,01,29,11,36,4.10
2007,01,29,11,37,4.20
2007,01,29,11,38,4.20
2007,01,29,11,39,4.20
2007,01,29,11,40,4.20
2007,01,29,11,41,4.20
2007,01,29,11,42,4.20
2007,01,29,11,43,4.20
2007,01,29,11,44,4.20
2007,01,29,11,45,4.30
2007,01,29,11,46,4.30
2007,01,29,11,47,4.30
2007,01,29,11,48,4.30
2007,01,29,11,49,4.30
2007,01,29,11,50,4.30
2007,01,29,11,51,4.30
2007,01,29,11,52,4.30
2007,01,29,11,53,4.30
2007,01,29,11,54,4.30
2007,01,29,11,55,4.40
2007,01,29,11,56,4.40
2007,01,29,11,57,4.40
2007,01,29,11,58,4.40
2007,01,29,11,59,4.50
2007,01,29,12,00,4.50
2007,01,29,12,01,4.50
2007,01,29,12,02,4.50
2007,01,29,12,03,4.60
2007,01,29,12,04,4.60
2007,01,29,12,05,4.60
2007,01,29,12,06,4.60
2007,01,29,12,07,4.50
2007,01,29,12,08,4.50
2007,01,29,12,09,4.50
2007,01,29,12,10,4.50
2007,01,29,12,11,4.50
2007,01,29,12,12,4.50
2007,01,29,12,13,4.50
2007,01,29,12,14,4.50
2007,01,29,12,15,4.50
2007,01,29,12,16,4.50
2007,01,29,12,17,4.60
2007,01,29,12,18,4.60
2007,01,29,12,19,4.60
2007,01,29,12,20,4.70
2007,01,29,12,21,4.70
2007,01,29,12,22,4.70
2007,01,29,12,23,4.70
2007,01,29,12,24,4.70
2007,01,29,12,25,4.70
2007,01,29,12,26,4.70
2007,01,29,12,27,4.70
2007,01,29,12,28,4.70
2007,01,29,12,29,4.70
2007,01,29,12,30,4.80
2007,01,29,12,31,4.80
2007,01,29,12,32,4.90
2007,01,29,12,33,4.90
2007,01,29,12,34,5.00
2007,01,29,12,35,5.10
2007,01,29,12,36,5.10
2007,01,29,12,37,5.20
2007,01,29,12,38,5.20
2007,01,29,12,39,5.30
2007,01,29,12,40,5.30
2007,01,29,12,41,5.30
2007,01,29,12,42,5.30
2007,01,29,12,43,5.30
2007,01,29,12,44,5.40
2007,01,29,12,45,5.40
2007,01,29,12,46,5.40
2007,01,29,12,47,5.50
2007,01,29,12,48,5.50
2007,01,29,12,49,5.60
2007,01,29,12,50,5.70
2007,01,29,12,51,5.70
2007,01,29,12,52,5.70
2007,01,29,12,53,5.70
2007,01,29,12,54,5.70
2007,01,29,12,55,5.80
2007,01,29,12,56,5.80
2007,01,29,12,57,5.80
2007,01,29,12,58,5.80
2007,01,29,12,59,5.90
2007,01,29,13,00,5.80
2007,01,29,13,01,5.80
2007,01,29,13,02,5.80
2007,01,29,13,03,5.80
2007,01,29,13,04,5.60
2007,01,29,13,05,5.60
2007,01,29,13,06,5.50
2007,01,29,13,07,5.50
2007,01,29,13,08,5.50
2007,01,29,13,09,5.50
2007,01,29,13,10,5.50
2007,01,29,13,11,5.50
2007,01,29,13,12,5.50
2007,01,29,13,13,5.40
2007,01,29,13,14,5.40
2007,01,29,13,15,5.40
2007,01,29,13,16,5.30
2007,01,29,13,17,5.30
2007,01,29,13,18,5.40
2007,01,29,13,19,5.40
2007,01,29,13,20,5.40
2007,01,29,13,21,5.30
2007,01,29,13,22,5.40
2007,01,29,13,23,5.40
2007,01,29,13,24,5.40
2007,01,29,13,25,5.40
2007,01,29,13,26,5.30
2007,01,29,13,27,5.30
2007,01,29,13,28,5.20
2007,01,29,13,29,5.10
2007,01,29,13,30,5.10
2007,01,29,13,31,5.00
2007,01,29,13,32,4.90
2007,01,29,13,33,4.90
2007,01,29,13,34,4.90
2007,01,29,13,35,4.90
2007,01,29,13,36,4.90
2007,01,29,13,37,4.90
2007,01,29,13,38,4.80
2007,01,29,13,39,4.80
2007,01,29,13,40,4.80
2007,01,29,13,41,4.70
2007,01,29,13,42,4.70
2007,01,29,13,43,4.70
2007,01,29,13,44,4.70
2007,01,29,13,45,4.70
2007,01,29,13,46,4.70
2007,01,29,13,47,4.70
2007,01,29,13,48,4.70
2007,01,29,13,49,4.70
2007,01,29,13,50,4.60
2007,01,29,13,51,4.60
2007,01,29,13,52,4.60
2007,01,29,13,53,4.60
2007,01,29,13,54,4.60
2007,01,29,13,55,4.60
2007,01,29,13,56,4.50
2007,01,29,13,57,4.50
2007,01,29,13,58,4.50
2007,01,29,13,59,4.50
2007,01,29,14,00,4.60
2007,01,29,14,01,4.60
2007,01,29,14,02,4.50
2007,01,29,14,03,4.50
2007,01,29,14,04,4.50
2007,01,29,14,05,4.50
2007,01,29,14,06,4.50
2007,01,29,14,07,4.50
2007,01,29,14,08,4.50
2007,01,29,14,09,4.50
2007,01,29,14,10,4.50
2007,01,29,14,11,4.60
2007,01,29,14,12,4.60
2007,01,29,14,13,4.60
2007,01,29,14,14,4.60
2007,01,29,14,15,4.60
2007,01,29,14,16,4.60
2007,01,29,14,17,4.60
2007,01,29,14,18,4.60
2007,01,29,14,19,4.60
2007,01,29,14,20,4.60
2007,01,29,14,21,4.60
2007,01,29,14,22,4.60
2007,01,29,14,23,4.60
2007,01,29,14,24,4.60
2007,01,29,14,25,4.60
2007,01,29,14,26,4.60
2007,01,29,14,27,4.60
2007,01,29,14,28,4.60
2007,01,29,14,29,4.60
2007,01,29,14,30,4.60
2007,01,29,14,31,4.60
2007,01,29,14,32,4.60
2007,01,29,14,33,4.60
2007,01,29,14,34,4.60
2007,01,29,14,35,4.60
2007,01,29,14,36,4.60
2007,01,29,14,37,4.60
2007,01,29,14,38,4.60
2007,01,29,14,39,4.60
2007,01,29,14,40,4.60
2007,01,29,14,41,4.70
2007,01,29,14,42,4.70
2007,01,29,14,43,4.70
2007,01,29,14,44,4.70
2007,01,29,14,45,4.70
2007,01,29,14,46,4.70
2007,01,29,14,47,4.70
2007,01,29,14,48,4.70
2007,01,29,14,49,4.70
2007,01,29,14,50,4.60
2007,01,29,14,51,4.60
2007,01,29,14,52,4.60
2007,01,29,14,53,4.60
2007,01,29,14,54,4.60
2007,01,29,14,55,4.60
2007,01,29,14,56,4.60
2007,01,29,14,57,4.60
2007,01,29,14,58,4.60
2007,01,29,14,59,4.70
2007,01,29,15,00,4.70
2007,01,29,15,01,4.70
2007,01,29,15,02,4.70
2007,01,29,15,03,4.70
2007,01,29,15,04,4.70
2007,01,29,15,05,4.70
2007,01,29,15,06,4.80
2007,01,29,15,07,4.80
2007,01,29,15,08,4.80
2007,01,29,15,09,4.80
2007,01,29,15,10,4.80
2007,01,29,15,11,4.80
2007,01,29,15,12,4.80
2007,01,29,15,13,4.80
2007,01,29,15,14,4.80
2007,01,29,15,15,4.70
2007,01,29,15,16,4.70
2007,01,29,15,17,4.70
2007,01,29,15,18,4.70
2007,01,29,15,19,4.70
2007,01,29,15,20,4.70
2007,01,29,15,21,4.70
2007,01,29,15,22,4.70
2007,01,29,15,23,4.70
2007,01,29,15,24,4.70
2007,01,29,15,25,4.70
2007,01,29,15,26,4.70
2007,01,29,15,27,4.70
2007,01,29,15,28,4.70
2007,01,29,15,29,4.70
2007,01,29,15,30,4.70
2007,01,29,15,31,4.70
2007,01,29,15,32,4.70
2007,01,29,15,33,4.70
2007,01,29,15,34,4.70
2007,01,29,15,35,4.70
2007,01,29,15,36,4.70
2007,01,29,15,37,4.70
2007,01,29,15,38,4.70
2007,01,29,15,39,4.80
2007,01,29,15,40,4.80
2007,01,29,15,41,4.80
2007,01,29,15,42,4.80
2007,01,29,15,43,4.80
2007,01,29,15,44,4.80
2007,01,29,15,45,4.80
2007,01,29,15,46,4.80
2007,01,29,15,47,4.80
2007,01,29,15,48,4.80
2007,01,29,15,49,4.80
2007,01,29,15,50,4.80
2007,01,29,15,51,4.80
2007,01,29,15,52,4.80
2007,01,29,15,53,4.80
2007,01,29,15,54,4.80
2007,01,29,15,55,4.80
2007,01,29,15,56,4.80
2007,01,29,15,57,4.80
2007,01,29,15,58,4.70
2007,01,29,15,59,4.70
2007,01,29,16,00,4.70
2007,01,29,16,01,4.70
2007,01,29,16,02,4.70
2007,01,29,16,03,4.70
2007,01,29,16,04,4.70
2007,01,29,16,05,4.70
2007,01,29,16,06,4.70
2007,01,29,16,07,4.70
2007,01,29,16,08,4.70
2007,01,29,16,09,4.70
2007,01,29,16,10,4.70
2007,01,29,16,11,4.70
2007,01,29,16,12,4.70
2007,01,29,16,13,4.70
2007,01,29,16,14,4.70
2007,01,29,16,15,4.60
2007,01,29,16,16,4.60
2007,01,29,16,17,4.60
2007,01,29,16,18,4.60
2007,01,29,16,19,4.60
2007,01,29,16,20,4.60
2007,01,29,16,21,4.60
2007,01,29,16,22,4.60
2007,01,29,16,23,4.60
2007,01,29,16,24,4.50
2007,01,29,16,25,4.50
2007,01,29,16,26,4.50
2007,01,29,16,27,4.50
2007,01,29,16,28,4.50
2007,01,29,16,29,4.40
2007,01,29,16,30,4.40
2007,01,29,16,31,4.40
2007,01,29,16,32,4.40
2007,01,29,16,33,4.40
2007,01,29,16,34,4.40
2007,01,29,16,35,4.40
2007,01,29,16,36,4.40
2007,01,29,16,37,4.30
2007,01,29,16,38,4.30
2007,01,29,16,39,4.30
2007,01,29,16,40,4.30
2007,01,29,16,41,4.30
2007,01,29,16,42,4.30
2007,01,29,16,43,4.30
2007,01,29,16,44,4.30
2007,01,29,16,45,4.20
2007,01,29,16,46,4.20
2007,01,29,16,47,4.20
2007,01,29,16,48,4.20
2007,01,29,16,49,4.20
2007,01,29,16,50,4.20
2007,01,29,16,51,4.20
2007,01,29,16,52,4.20
2007,01,29,16,53,4.20
2007,01,29,16,54,4.10
2007,01,29,16,55,4.10
2007,01,29,16,56,4.10
2007,01,29,16,57,4.10
2007,01,29,16,58,4.10
2007,01,29,16,59,4.10
2007,01,29,17,00,4.10
2007,01,29,17,01,4.10
2007,01,29,17,02,4.10
2007,01,29,17,03,4.10
2007,01,29,17,04,4.10
2007,01,29,17,05,4.10
2007,01,29,17,06,4.00
2007,01,29,17,07,4.00
2007,01,29,17,08,3.90
2007,01,29,17,09,3.90
2007,01,29,17,10,3.90
2007,01,29,17,11,3.90
2007,01,29,17,12,3.80
2007,01,29,17,13,3.80
2007,01,29,17,14,3.80
2007,01,29,17,15,3.80
2007,01,29,17,16,3.80
2007,01,29,17,17,3.80
2007,01,29,17,18,3.80
2007,01,29,17,19,3.70
2007,01,29,17,20,3.70
2007,01,29,17,21,3.70
2007,01,29,17,22,3.70
2007,01,29,17,23,3.60
2007,01,29,17,24,3.60
2007,01,29,17,25,3.50
2007,01,29,17,26,3.50
2007,01,29,17,27,3.40
2007,01,29,17,28,3.40
2007,01,29,17,29,3.40
2007,01,29,17,30,3.30
2007,01,29,17,31,3.30
2007,01,29,17,32,3.30
2007,01,29,17,33,3.20
2007,01,29,17,34,3.20
2007,01,29,17,35,3.20
2007,01,29,17,36,3.10
2007,01,29,17,37,3.10
2007,01,29,17,38,3.10
2007,01,29,17,39,3.00
2007,01,29,17,40,3.00
2007,01,29,17,41,2.90
2007,01,29,17,42,2.90
2007,01,29,17,43,2.90
2007,01,29,17,44,2.90
2007,01,29,17,45,2.90